Погода в Змеиногорске

Погода в Змеиногорске : погода сейчас, прогноз погоды и архив. Всё, что Вы хотите узнать о погоде в Змеиногорске!

Хотите узнать прогноз погоды в Змеиногорске? Тогда Вам сюда: Погода в Змеиногорске

Поиск расширенной информации на нашем сайте:

Другие новости

Новости СМИ2

Главная страница сайта

Новости сайта

02.10.2013

Напоминаем, что на нашем новом сайте вы можете получить высокодетализированные прогнозы погоды по пунктам России, СНГ и мира (включающие важные для авиации метеовеличины, такие как направление и скорость ветра, видимость, явления погоды, количество и форма облачности, нижняя и верхняя граница облачности), а также ознакомиться с разнообразными материалами по авиационной метеорологии и подборкой полезных ссылок на эту тему.

Сайт Метеоцентр.Азия посвящён разработке технологий оптимизации авиаметеорологического обслуживания, включая проектирование и перспективное создание нескольких автоматизированных авиаметеорологических систем:
- система выпуска высокодетальных прогностических карт явлений погоды для нижнего воздушного пространства по России и ближнему зарубежью;
- система верификации прогнозов TAF (выпускаемых синоптиками официальных АМСГ РФ и ближнего зарубежья) и AUTOTAF (выпускаемых сайтом Метеоцентр.Азия) - выявление ошибок, онлайн-сопоставление с фактической погодой METAR, автоматическое внесение коррективов в прогнозы при резком отклонении фактической погоды от прогноза, подсчёт оправдываемости прогнозов по элементам и в целом;
- система обработки, анализа и отображения авиаметеорологической информации для применения провайдерами метеорологической информации.


Погода в Змеиногорске - сегодня

Время (UTC), дата Ветер
(°,м/с) 
Видим.   Явления Облачность Т
(°С)
Тd
(°С)
f(%) Тe
(°С)
Pmin
(гПа)
dP
(гПа)
Po
(мм)
O2
(г/м3)
Тmin Tmax R s Состояние
почвы
18 19.05.17 тихо ()   20000 м    ясно 
+2.3 -1.2 78 +2  1029  0.1  739  295           
21 19.05.17 тихо ()   20000 м    ясно 
-0.2 -2.2 86 -0  1029.2  -0.2  739  298           
00 20.05.17 020 (С) 20000 м    10/8 600 м верхняя 
[Cu med, cong|Cs]
+1.8 -1.7 78 +1  1028.9  739  296  -0.6        сухая 
03 20.05.17 230 (ЮЗ) 20000 м    10/0 средняя, верхняя 
[Ac trans|Cs]
+15.3 -0.7 33 +16  1026.1  -0.6  738  282           
06 20.05.17 250 (З) 20000 м    10/1 600 м верхняя 
[Cu med, cong|Ci fib]
+19.6 -1.5 24 +20  1023.6  -1.8  737  277           
09 20.05.17 270 (З) 20000 м    10/6 600 м верхняя 
[Sc|Ci fib]
+20.2 -2.1 22 +20  1021.5  -1.9  735  276           
12 20.05.17 190 (Ю) 20000 м    10/8 600 м верхняя 
[Sc|Cc]
+19.1 -0.9 26 +21  1020.3  -1.4  734  277    +21.3       
15 20.05.17 190 (Ю) 20000 м    10/8 600 м верхняя 
[Sc|Ci fib]
+12.4 +4.8 60 +14  1020.5  -0.7  734  282           
18 20.05.17 020 (С) 20000 м    10/6 600 м верхняя 
[Sc|Ci fib]
+7.2 +3.8 79 +8  1020.8  -0.5  733  287           
21 20.05.17 040 (СВ) 20000 м    10/9 600 м верхняя 
[Sc|Ci fib]
+7.2 +3.3 76 +8  1019.4  -1.3  732  287           
00 21.05.17 040 (СВ) 20000 м    10/8 600 м верхняя 
[Sc|Ci fib]
+7.1 +3.4 77 +8  1019.2  -0.2  732  287  +6.8        сухая 
03 21.05.17 200 (Ю) 20000 м    10/0 верхняя 
[Ci]
+17.9 +0.4 31 +19  1017.6  732  277           
06 21.05.17 240 (ЮЗ) 20000 м    10/1 600 м верхняя 
[Cu hum|Cc]
+22.3 -4.5 16 +22  1016.5  -0.5  732  273           
09 21.05.17 300 (СЗ) 20000 м    10/8 600 м верхняя 
[Cu med, cong|Cs]
+23.9 -3.3 16 +24  1015.7  -0.6  731  271           
12 21.05.17 320 (СЗ) 20000 м    8/6 600 м верхняя 
[Cu med, cong|Cs]
+23.5 -3.8 16 +24  1015.9  0.2  732  272    +24.5       
15 21.05.17 130 (ЮВ) 20000 м    10/0 верхняя 
[Cs]
+14.1 +4.4 52 +15  1017.6  0.3  732  280           
18 21.05.17 130 (ЮВ) 20000 м    ясно 
+7 +3.3 77 +8  1019.5  0.9  732  287           
21 21.05.17 100 (В) 20000 м    ясно 
+4.3 +1.9 84 +5  1019.8  -0.2  732  290           
00 22.05.17 тихо ()   20000 м    10/0 средняя, верхняя 
[Ac As|Ci]
+6.6 +1.8 71 +7  1019.6  0.2  732  288  +3.2        сухая 
03 22.05.17 180 (Ю) 20000 м    9/0 средняя 
[Ac und]
+21.2 +0.7 26 +21  1016.7  -0.7  732  274           
06 22.05.17 200 (Ю) 20000 м    10/0 верхняя 
[Ci]
+24.5 -1.1 18 +25  1015.4  -0.9  731  270           
09 22.05.17 190 (Ю) 20000 м    10/0 верхняя 
[Ci]
+26.3 -4.2 13 +26  1013.7  -1.3  730  269           
12 22.05.17 210 (ЮЗ) 20000 м    10/0 средняя, верхняя 
[Ac As|Ci fib]
+24.7 -4.5 14 +25  1012.9  -1.1  729  270    +26.9       
15 22.05.17 120 (ЮВ) 20000 м    10/0 средняя, верхняя 
[Ac As|Ci]
+15.9 +5.9 51 +17  1013.6  -0.4  729  277           
18 22.05.17 120 (ЮВ) 20000 м    10/0 верхняя 
[Ci]
+11.7 +5.5 66 +13  1013.3  -0.9  728  281           
Время (UTC), дата Ветер
(°,м/с) 
Видим.   Явления Облачность Т
(°С)
Тd
(°С)
f(%) Тe
(°С)
Pmin
(гПа)
dP
(гПа)
Po
(мм)
O2
(г/м3)
Тmin Tmax R s Состояние
почвы

Для получения пояснительной информации подведите курсор к названию столбца.

ПОГОДА в Змеиногорске - архив

Всё, что Вы хотите узнать о погоде в Змеиногорске - удобно и подробно!

Выберите нужную дату (начиная с 1 января 2015* года) и нажмите кнопку "Найти".
Будут отображены архивные сводки погоды по пункту Змеиногорск, начиная с указанной даты.


Отображать данные в формате CSV (для использования в таблицах Excel)


Внимание! Наш архив погоды предназначен исключительно для личного некоммерческого использования в познавательных целях. Если Вам необходимы официальные справки о состоянии погоды (для производственных, юридических, коммерческих и т.п. целей), обращайтесь в органы Росгидромета.

*Примечание: данная дата относится к архиву по метеостанциям СССР (Россия, СНГ, Балтия).
Архив по метеостанциям Зарубежной Европы и Азии (кроме Китая) хранится 10 дней, по другим регионам земного шара (Китай, Африка, Америка, Австралия, Океания) - 1 день.

Змеиногорск - район местоположения метеостанции


Название, широта, долгота, высота метеостанции:
Змеиногорск 51.2°ш. 82.2°д. 355 м над ур. моря [Российская Федерация]

Дополнительная информация

В oтличие oт бoльшинства пoгoдных сайтoв мы публикуем пoдрoбную метеoинфoрмацию в детальнoм прoфессиoнальнoм фoрмате.

Характеристики температуры и влажнoсти вoздуха измеряются на высoте 2 м в тени вдали oт зданий и деревьев.
Скoрoсть ветра измеряется на высoте 10 м (на урoвне рoста челoвека скoрoсть ветра ниже в 1.5-2 раза). Если метеoстанция нахoдится в гoрoде или в лесу, тo скoрoсть ветра занижена на 2-4 м/с пo сравнению с oткрытым местoм. Скoрoсть ветра над акватoриями крупных рек и oзёр, а также на вершинах хoлмoв на 2-5 м/с выше, чем в oбычных услoвиях.
Атмoсфернoе давление в разных тoчках местнoсти мoжет значительнo oтличаться oт давления на метеoстанции, в зависимoсти oт услoвий рельефа (при пoдъёме на 10 м давление пoнижается примернo на 1 мм рт.ст.).